Regional Weather Roundup
Issued by NWS

Home | Current Version | Previous Version | Graphics & Text | Print | Product List | Glossary Off
Versions: 1 2 3 4 5 6 7 8 9 10 11 12 13 14 15 16 17 18 19 20 21 22 23 24 25 26 27 28 29 30 31 32 33 34 35 36 37 38 39 40 41 42 43 44 45 46 47 48 49 50

000
ASUS43 KDMX 231307
RWRIA

WEATHER ROUNDUP FOR IOWA
NATIONAL WEATHER SERVICE DES MOINES IA
800 AM CDT SAT AUG 23 2014

NOTE: "FAIR" INDICATES FEW OR NO CLOUDS BELOW 12,000 FEET WITH NO
SIGNIFICANT WEATHER AND/OR OBSTRUCTIONS TO VISIBILITY.

* - THESE STATIONS ARE NOT NWS STATIONS...THUS NOT UNDER NWS
QUALITY CONTROL.  THEY ALSO DO NOT REPORT WEATHER SUCH
AS PRECIPITATION OR FOG.

IAZ001>003-012>014-020>022-031>034-043>046-231400-
   NORTHWEST IOWA

CITY           SKY/WX    TMP DP  RH WIND       PRES   REMARKS
CARROLL *      MOSUNNY   70  68  94 SE9       29.91S
CHEROKEE *     CLOUDY    70  70 100 NE8       29.90R
DENISON *      MOSUNNY   70  70 100 E9        29.88R
LE MARS *      MOSUNNY   70  68  94 VRB3      29.89S
ORANGE CITY *  SUNNY     70  66  88 E7        29.89F
SHELDON *      PTSUNNY   70  68  94 NE10G18   29.89R
SIOUX CITY     CLOUDY    70  68  93 NE3       29.89R
SPENCER        CLOUDY    70  68  93 E14       29.91F
STORM LAKE *   PTSUNNY   68  68 100 NE9       29.92R
$$

IAZ055>058-069>071-079>083-090>094-231400-
   SOUTHWEST IOWA

CITY           SKY/WX    TMP DP  RH WIND       PRES   REMARKS
ATLANTIC *     CLOUDY    72  72 100 E9        29.91F
AUDUBON *      MOSUNNY   72  70  94 SE5       29.94S
CLARINDA *     SUNNY     72  70  94 VRB3      29.92S
COUNCIL BLFS * CLOUDY    70  70 100 E15       29.86F
CRESTON *      PTSUNNY   70  70 100 E12       29.95S
HARLAN  *      CLOUDY    70  70 100 E7G13     29.93S
LAMONI         CLOUDY    71  69  93 SE6       29.96R
RED OAK *      CLOUDY    72  72 100 NE9       29.89F
SHENANDOAH *   MOSUNNY   72  72 100 E9        29.90R
$$

IAZ047>049-059>061-072>074-084-231400-
   CENTRAL IOWA

CITY           SKY/WX    TMP DP  RH WIND       PRES   REMARKS
AMES           LGT RAIN  71  71 100 NE8       29.92F
ANKENY *       LGT RAIN  72  72 100 SW5       29.94R
CHARITON *     CLOUDY    70  70 100 E14       29.95F
DES MOINES     LGT RAIN  73  70  90 S8        29.95R
GRINNELL*      RAIN      72  68  88 NW6       29.99F
KNOXVILLE *    LGT RAIN  72  70  94 SE8       29.95F
MARSHALLTOWN   TSTM      71  70  96 NW8       29.97F FOG
PELLA *        RAIN      72  70  94 E5        29.97F
PERRY *          N/A     70  70 100 S7        29.96R
$$

IAZ004>006-015-016-023>025-035-036-231400-
   NORTH CENTRAL IOWA

CITY           SKY/WX    TMP DP  RH WIND       PRES   REMARKS
ALGONA *       DRIZZLE   70  70 100 NE7       29.93F
CLARION *      LGT RAIN  70  70 100 E9        29.96S
ESTHERVILLE    CLOUDY    68  68 100 NE12      29.93F FOG
FORT DODGE *   CLOUDY    70  68  94 NE6       29.93R
MASON CITY     TSTM      70  70 100 SW16      30.05R FOG
FOREST CITY *  HVY RAIN  70  70 100 NW9G16    30.01R
IOWA FALLS *   HVY RAIN  72  70  94 E6        30.02R
$$

IAZ007>011-017>019-026>030-037>042-050>054-066-231400-
   NORTHEAST IOWA

CITY           SKY/WX    TMP DP  RH WIND       PRES   REMARKS
CEDAR RAPIDS   CLOUDY    73  72  96 W16       29.97R
CHARLES CITY * CLOUDY    72  72 100 E7        29.99R FOG
CLINTON *      PTSUNNY   75  73  94 E3        29.99R
DECORAH *      FOG       72  72 100 CALM      29.98R VSB 1
DUBUQUE        CLOUDY    74  74 100 S6        29.98R FOG
MONTICELLO *   PTSUNNY   73  73 100 CALM      29.96S FOG
OELWEIN *      PTSUNNY   73  73 100 CALM      29.99R
WATERLOO       LGT RAIN  74  73  97 SW5       29.97R FOG
$$

IAZ064-065-067-068-078-231400-
   EAST CENTRAL IOWA

CITY           SKY/WX    TMP DP  RH WIND       PRES   REMARKS
DAVENPORT      PTSUNNY   76  73  91 E3        29.96R FOG
IOWA CITY      CLOUDY    75  75 100 NW10      29.96S FOG
MT. PLEASANT * HVY RAIN  74  73  95 W16G26    29.96R
MUSCATINE *    CLOUDY    75  75 100 CALM      29.94S FOG
QUAD CITIES    PTSUNNY   76  73  91 E3        29.95R
$$

IAZ062-063-075>077-085>089-095>099-231400-
   SOUTHEAST IOWA

CITY           SKY/WX    TMP DP  RH WIND       PRES   REMARKS
BURLINGTON     TSTM      77  76  96 CALM      29.95R FOG
FAIRFIELD *    HVY RAIN  72  70  94 N12G24    29.99R VSB 1/4
FORT MADISON * PTSUNNY   79  79 100 CALM      29.95R FOG     HX  83
KEOKUK *       MOSUNNY   77  77 100 CALM      29.93R FOG
OSKALOOSA *    LGT RAIN  72  70  94 SW6       29.98F
CENTERVILLE *  LGT RAIN  72  72 100 N8        29.99F
OTTUMWA        LGT RAIN  71  68  90 CALM      29.98F
WASHINGTON *   HVY RAIN  73  73 100 W6G12     29.98R VSB 3/4
$$

ABBREVIATIONS USED IN REMARKS
   TC - TEMPERATURES IN CELSIUS
  WCI - WIND CHILL INDEX
   HX - HEAT INDEX
  VSB - VISIBILITY
$$



USA.gov is the U.S. government's official web portal to all federal, state and local government web resources and services.